User: anonymous   Login
Location: Auckland
(36.8670°S, 174.7670°E)
Time: 11:53:59
(UTC+12:00)
Language:

Transit 4A - Orbit

View from above orbital plane
View from above orbital plane
View from above satellite
View from above satellite

Ground track
Ground track

The orbit data is extracted from the following two-line orbital elements,

1   116U 61015A   19201.82668266 -.00000027  00000-0  38380-4 0  9994
2   116  66.8108 301.3432 0082146 244.2340 115.0245 13.91755778946016
Epoch (UTC): 20 July 2019 19:50:25
Eccentricity: 0.0082146
inclination: 66.8108°
perigee height: 862 km
apogee height: 982 km
right ascension of ascending node: 301.3432°
argument of perigee: 244.2340°
revolutions per day: 13.91755778
mean anomaly at epoch: 115.0245°
orbit number at epoch: 94601

The dashed part of the orbit path shows where the satellite is in the earth's shadow,  

DLR